Weather History for Buffalo, WY

Change the Weather History Date:

Thursday, February 28, 2013

  Actual Average Record
Temperature  
Mean Temperature 28 °F 30 °F  
Max Temperature 36 °F 41 °F 66 °F (2006)
Min Temperature 19 °F 19 °F -2 °F (2002)
Degree Days  
Heating Degree Days 37 35  
Month to date heating degree days 1071 1034  
Since 1 July heating degree days 4949 5240  
Cooling Degree Days 0 0  
Month to date cooling degree days 0 0  
Year to date cooling degree days 0 0  
Moisture  
Dew Point 15 °F    
Average Humidity 53    
Maximum Humidity 68    
Minimum Humidity 38    
Precipitation  
Precipitation 0.00 in 0.02 in 0.67 in (2004)
Month to date precipitation 0.13 0.35  
Year to date precipitation 0.61 0.77  
Sea Level Pressure  
Sea Level Pressure 30.26 in    
Wind  
Wind Speed 5 mph (WNW)    
Max Wind Speed 14 mph    
Max Gust Speed 17 mph    
Visibility 10 miles    
Events      
T = Trace of Precipitation, MM = Missing Value Source: NWS Daily Summary

Daily Weather History Graph

Daily Weather History Graph

Search for Another Location

Airport:

Trip Planner

Search our weather history database for the weather conditions in past years. The results will help you decide how hot, cold, wet, or windy it might be!

Date:

Astronomy

Feb. 28, 2013 Rise Set
Actual Time 6:45 AM MST 5:54 PM MST
Civil Twilight 6:16 AM MST 6:23 PM MST
Nautical Twilight 5:42 AM MST 6:56 PM MST
Astronomical Twilight 5:08 AM MST 7:30 PM MST
Moon 9:34 PM MST (2/28) 7:47 AM MST (2/28)
Length of Visible Light 12h 07m
Length of Day
11h 08m
Waning Gibbous, 90% of the Moon is Illuminated
Feb 28
Waning Gibbous
Mar 4
Last Quarter
Mar 11
New
Mar 19
First Quarter
Mar 27
Full

Hourly Weather History & Observations

Time (MST) Temp. Windchill Dew Point Humidity Pressure Visibility Wind Dir Wind Speed Gust Speed Precip Events Conditions
12:53 AM 28.0 °F 20.8 °F 10.9 °F 49% 30.22 in 10.0 mi West 6.9 mph - N/A   Overcast
1:53 AM 25.0 °F 16.3 °F 12.0 °F 58% 30.24 in 10.0 mi WSW 8.1 mph - N/A   Mostly Cloudy
2:53 AM 23.0 °F 13.9 °F 12.0 °F 63% 30.24 in 10.0 mi WSW 8.1 mph - N/A   Mostly Cloudy
3:53 AM 26.1 °F - 14.0 °F 60% 30.24 in 10.0 mi Calm Calm - N/A   Overcast
4:53 AM 27.0 °F - 14.0 °F 58% 30.25 in 10.0 mi Calm Calm - N/A   Unknown
5:53 AM 21.9 °F 15.7 °F 12.0 °F 66% 30.27 in 10.0 mi WSW 4.6 mph - N/A   Clear
7:53 AM 27.0 °F 19.5 °F 15.1 °F 61% 30.27 in 10.0 mi South 6.9 mph - N/A   Clear
8:53 AM 32.0 °F - 15.1 °F 50% 30.27 in 10.0 mi Calm Calm - N/A   Clear
9:53 AM 33.1 °F 30.0 °F 15.1 °F 48% 30.27 in 10.0 mi NNW 3.5 mph - N/A   Clear
10:53 AM 35.1 °F - 12.9 °F 40% 30.25 in 10.0 mi Calm Calm - N/A   Mostly Cloudy
11:53 AM 34.0 °F 29.8 °F 12.9 °F 42% 30.26 in 10.0 mi North 4.6 mph - N/A   Scattered Clouds
12:53 PM 36.0 °F 30.3 °F 15.1 °F 43% 30.23 in 10.0 mi North 6.9 mph - N/A   Mostly Cloudy
1:53 PM 34.0 °F 27.2 °F 16.0 °F 48% 30.24 in 10.0 mi North 8.1 mph - N/A   Overcast
2:53 PM 34.0 °F 28.8 °F 18.0 °F 52% 30.24 in 10.0 mi WNW 5.8 mph - N/A   Overcast
3:53 PM 35.1 °F 32.2 °F 18.0 °F 50% 30.23 in 10.0 mi North 3.5 mph - N/A   Overcast
4:53 PM 34.0 °F 29.8 °F 17.1 °F 50% 30.24 in 10.0 mi NNW 4.6 mph - N/A   Clear
5:53 PM 28.9 °F 22.8 °F 17.1 °F 61% 30.28 in 10.0 mi West 5.8 mph - N/A   Clear
7:53 PM 30.0 °F 25.2 °F 17.1 °F 59% 30.27 in 10.0 mi WSW 4.6 mph - N/A   Overcast
8:53 PM 32.0 °F 27.5 °F 17.1 °F 54% 30.27 in 10.0 mi North 4.6 mph - N/A   Overcast
9:53 PM 30.0 °F 23.2 °F 18.0 °F 61% 30.29 in 10.0 mi WNW 6.9 mph - N/A   Overcast
10:53 PM 28.9 °F 19.8 °F 18.0 °F 64% 30.30 in 10.0 mi NNW 10.4 mph - N/A   Partly Cloudy
11:53 PM 28.0 °F 20.8 °F 17.1 °F 63% 30.29 in 10.0 mi NNW 6.9 mph - N/A   Clear